Hourly Data Report for October 05, 2017

All times are specified in Local Standard Time (LST). Add 1 hour to adjust for Daylight Saving Time where and when it is observed.

SIOUX LOOKOUT A
ONTARIO

50°06'51.000" N
91°54'29.000" W
383.10 m
6037776
71842
YXL

Download Data

Hourly Data (October 2017)
Hourly Data Report for October 5, 2017
Temp Definition
°C
Dew Point Temp Definition
°C
Rel Hum Definition
%
Wind Dir Definition
10's deg

Wind Spd Definition
km/h
Visibility Definition
km
Stn Press Definition
kPa
Hmdx Definition


Wind Chill Definition


Weather Definition


TIME
00:00 Legend Double Dagger 7.4 5.3 87 28 13 24.1 97.09     Mainly Clear
01:00 Legend Double Dagger 6.8 4.8 87 28 11 24.1 97.09     LegendNANA
02:00 Legend Double Dagger 5.9 4.4 90 28 6 24.1 97.07     LegendNANA
03:00 Legend Double Dagger 6.2 4.5 89 27 9 24.1 97.09     Mostly Cloudy
04:00 Legend Double Dagger 5.3 4.0 91 27 8 24.1 97.10     LegendNANA
05:00 Legend Double Dagger 5.6 4.3 92 29 6 24.1 97.11     LegendNANA
06:00 Legend Double Dagger 6.1 4.3 88 30 12 24.1 97.10     Cloudy
07:00 Legend Double Dagger 6.5 4.7 88 30 14 24.1 97.15     LegendNANA
08:00 Legend Double Dagger 7.1 4.9 86 31 14 24.1 97.19     LegendNANA
09:00 Legend Double Dagger 7.7 3.3 74 34 16 24.1 97.23     Mostly Cloudy
10:00 Legend Double Dagger 8.1 2.9 70 33 14 24.1 97.21     LegendNANA
11:00 Legend Double Dagger 9.5 0.4 53 31 24 24.1 97.19     LegendNANA
12:00 Legend Double Dagger 9.9 -0.1 49 30 17 24.1 97.18     Mainly Clear
13:00 Legend Double Dagger 10.6 -0.3 47 28 17 24.1 97.15     LegendNANA
14:00 Legend Double Dagger 10.8 -0.1 47 29 17 24.1 97.17     LegendNANA
15:00 Legend Double Dagger 9.6 0.5 53 32 17 24.1 97.16     Mainly Clear
16:00 Legend Double Dagger 9.6 0.5 53 32 12 24.1 97.14     LegendNANA
17:00 Legend Double Dagger 8.3 0.3 57 31 9 24.1 97.13     LegendNANA
18:00 Legend Double Dagger 6.6 0.6 65 29 8 24.1 97.13     Mainly Clear
19:00 Legend Double Dagger 3.1 0.6 84 26 4 24.1 97.13     LegendNANA
20:00 Legend Double Dagger 3.0 0.4 83 27 5 24.1 97.13     LegendNANA
21:00 Legend Double Dagger 2.1 0.4 88 29 4 24.1 97.14     Mainly Clear
22:00 Legend Double Dagger 0.8 -0.2 93 27 6 24.1 97.14     LegendNANA
23:00 Legend Double Dagger 0.8 -0.2 93 27 6 24.1 97.12     LegendNANA

Notes on Data Quality.

Legend

  • E = Estimated
  • M = Missing
  • NA = Not Available
  • ‡ = Partner data that is not subject to review by the National Climate Archives
Date modified: